TimeEET,TemperatureF,Dew PointF,Humidity,Sea Level PressureIn,VisibilityMPH,Wind Direction,Wind SpeedMPH,Gust SpeedMPH,PrecipitationIn,Events,Conditions,WindDirDegrees,DateUTC
12:00 AM,71.6,59.0,64,29.98,-9999.0,NNW,10.4,-,N/A,,Clear,340,2013-05-25 22:00:00
12:30 AM,71.6,59.0,64,29.98,-9999.0,NNW,10.4,-,N/A,,Clear,340,2013-05-25 22:30:00
1:00 AM,69.8,60.8,73,29.95,-9999.0,North,10.4,-,N/A,,Clear,350,2013-05-25 23:00:00
1:30 AM,69.8,60.8,73,29.95,-9999.0,North,10.4,-,N/A,,Clear,350,2013-05-25 23:30:00
2:00 AM,70,60,64,29.96,6,North,9.2,,,,,0,2013-05-26 00:00:00
2:00 AM,69.8,60.8,73,29.95,-9999.0,North,9.2,-,N/A,,Clear,360,2013-05-26 00:00:00
2:30 AM,69.8,60.8,73,29.95,-9999.0,North,9.2,-,N/A,,Clear,360,2013-05-26 00:30:00
3:00 AM,69.8,60.8,73,29.95,6.2,North,10.4,-,N/A,,Scattered Clouds,360,2013-05-26 01:00:00
3:30 AM,68.0,60.8,78,29.95,6.2,North,9.2,-,N/A,,Scattered Clouds,360,2013-05-26 01:30:00
4:00 AM,68.0,60.8,78,29.95,6.2,NNW,10.4,-,N/A,,Scattered Clouds,340,2013-05-26 02:00:00
4:30 AM,68.0,59.0,73,29.95,3.7,NNW,10.4,-,N/A,,Scattered Clouds,340,2013-05-26 02:30:00
5:00 AM,68.0,60.8,78,29.95,2.5,North,9.2,-,N/A,,Scattered Clouds,350,2013-05-26 03:00:00
5:30 AM,68.0,59.0,73,29.95,2.5,North,9.2,-,N/A,,Scattered Clouds,350,2013-05-26 03:30:00
6:00 AM,68.0,59.0,73,29.98,2.5,NNW,10.4,-,N/A,,Scattered Clouds,340,2013-05-26 04:00:00
6:30 AM,68.0,59.0,73,29.98,3.7,North,10.4,-,N/A,,Scattered Clouds,10,2013-05-26 04:30:00
7:00 AM,68.0,59.0,73,29.98,3.7,NNW,9.2,-,N/A,,Scattered Clouds,340,2013-05-26 05:00:00
7:30 AM,69.8,59.0,68,29.98,3.7,NNW,9.2,-,N/A,,Unknown,340,2013-05-26 05:30:00
8:00 AM,70,58,57,29.99,4,North,9.2,,,,Haze,0,2013-05-26 06:00:00
8:00 AM,69.8,57.2,64,29.98,3.7,North,9.2,-,N/A,,Unknown,360,2013-05-26 06:00:00
8:30 AM,71.6,57.2,60,29.98,3.7,North,9.2,-,N/A,,Unknown,360,2013-05-26 06:30:00
9:00 AM,71.6,57.2,60,29.98,-9999.0,North,9.2,-,N/A,,Clear,10,2013-05-26 07:00:00
9:30 AM,73.4,57.2,57,29.98,-9999.0,North,9.2,-,N/A,,Clear,10,2013-05-26 07:30:00
10:00 AM,75.2,55.4,50,29.98,-9999.0,North,6.9,-,N/A,,Clear,360,2013-05-26 08:00:00
10:30 AM,77.0,55.4,47,29.98,-9999.0,North,6.9,-,N/A,,Clear,360,2013-05-26 08:30:00
11:00 AM,78.8,57.2,47,29.98,-9999.0,NNW,4.6,-,N/A,,Clear,340,2013-05-26 09:00:00
11:30 AM,78.8,57.2,47,29.98,-9999.0,NNW,4.6,-,N/A,,Clear,340,2013-05-26 09:30:00
12:00 PM,80.6,55.4,42,29.98,-9999.0,North,9.2,-,N/A,,Clear,360,2013-05-26 10:00:00
12:30 PM,82.4,51.8,35,29.98,-9999.0,NNW,5.8,-,N/A,,Clear,330,2013-05-26 10:30:00
1:00 PM,82.4,53.6,37,29.95,-9999.0,North,8.1,-,N/A,,Clear,350,2013-05-26 11:00:00
1:30 PM,84.2,48.2,29,29.95,-9999.0,West,11.5,-,N/A,,Clear,280,2013-05-26 11:30:00
2:00 PM,85,49,19,29.95,6,NW,8.1,,,,,320,2013-05-26 12:00:00
2:00 PM,86.0,50.0,29,29.95,-9999.0,NW,8.1,-,N/A,,Clear,320,2013-05-26 12:00:00
2:30 PM,86.0,48.2,27,29.95,-9999.0,NW,15.0,-,N/A,,Clear,320,2013-05-26 12:30:00
3:00 PM,86.0,50.0,29,29.95,-9999.0,NNW,6.9,-,N/A,,Clear,330,2013-05-26 13:00:00
3:30 PM,86.0,51.8,31,29.92,-9999.0,North,8.1,-,N/A,,Clear,10,2013-05-26 13:30:00
4:00 PM,86.0,44.6,23,29.92,-9999.0,NNW,11.5,-,N/A,,Clear,340,2013-05-26 14:00:00
4:30 PM,86.0,50.0,29,29.92,-9999.0,NNW,11.5,-,N/A,,Clear,340,2013-05-26 14:30:00
5:00 PM,86.0,48.2,27,29.92,-9999.0,NNW,12.7,-,N/A,,Clear,340,2013-05-26 15:00:00
5:30 PM,86.0,50.0,29,29.92,-9999.0,North,12.7,-,N/A,,Clear,350,2013-05-26 15:30:00
6:00 PM,86.0,50.0,29,29.92,-9999.0,NW,12.7,-,N/A,,Clear,320,2013-05-26 16:00:00
6:30 PM,84.2,51.8,33,29.95,-9999.0,NNW,16.1,-,N/A,,Clear,340,2013-05-26 16:30:00
7:00 PM,82.4,50.0,32,29.95,-9999.0,North,17.3,-,N/A,,Clear,360,2013-05-26 17:00:00
7:30 PM,82.4,46.4,28,29.95,-9999.0,North,15.0,-,N/A,,Clear,350,2013-05-26 17:30:00
8:00 PM,81,47,21,29.95,6,North,15.0,,,,,350,2013-05-26 18:00:00
8:00 PM,80.6,48.2,32,29.95,-9999.0,North,15.0,-,N/A,,Clear,350,2013-05-26 18:00:00
8:30 PM,78.8,53.6,42,29.98,-9999.0,NNW,12.7,-,N/A,,Clear,340,2013-05-26 18:30:00
9:00 PM,77.0,57.2,50,29.98,-9999.0,NNW,12.7,-,N/A,,Clear,340,2013-05-26 19:00:00
9:30 PM,75.2,59.0,57,29.98,-9999.0,NNW,13.8,-,N/A,,Clear,330,2013-05-26 19:30:00
10:00 PM,75.2,57.2,53,30.01,-9999.0,NNW,11.5,-,N/A,,Clear,340,2013-05-26 20:00:00
10:30 PM,73.4,57.2,57,30.01,-9999.0,NNW,11.5,-,N/A,,Clear,340,2013-05-26 20:30:00
11:00 PM,73.4,57.2,57,30.01,-9999.0,North,10.4,-,N/A,,Clear,350,2013-05-26 21:00:00
11:30 PM,73.4,57.2,57,30.01,-9999.0,North,10.4,-,N/A,,Clear,350,2013-05-26 21:30:00